sat.trackr.live / text

‹ back to catalog

STARLINK-3898

NORAD 52458 · 2022-049H

PAYLOAD ACTIVE UNKNOWN

§ Identity

Operator
Country
US
Launch date
2022-05-06
Launch site
AFETR
Launch vehicle
Mass (kg)
RCS (m²)

Purposes: comms

External: N2YO · Heavens-Above · Gunter

§ Orbital elements

Epoch: 2026-05-25T03:09:51.333696Z

Period
95.44 min
Inclination
53.2135°
Eccentricity
0.0001362
Mean motion
15.08841760 rev/d
Perigee alt
538.8 km
Apogee alt
540.7 km
Semi-major
6,917.9 km
B*
-1.5640e-5
RAAN
85.9576°
Arg perigee
62.1889°
Mean anomaly
297.9241°
Rev number
22,365

§ Raw data

STARLINK-38981 52458U 22049H   26145.13184414 -.00000537  00000+0 -15640-4 0  99912 52458  53.2135  85.9576 0001362  62.1889 297.9241 15.08841760223653

JSON: /api/v1/satellites/52458 · /tle

For live sub-satellite position, see the globe view (requires WebGL).

§ Visibility from observer

Set your observer location to see the next 7 days of passes ≥ 10°. The values pass through the URL so the page stays shareable.

No JS? Fill the form by hand. The geolocation button needs JavaScript.